If you wish to contribute or participate in the discussions about articles you are invited to join SKYbrary as a registered user

 Actions

Nay Pyi Taw International Airport

From SKYbrary Wiki

VYNT
Airport
ICAO: VYNT – IATA: NYT
Summary
Name Nay Pyi Taw International Airport
Region Asia and Pacific
Territory Myanmar MM.gif
Location Pyinmana, Naypyidaw Union Territory
Serving Nay Pyi Taw
Elevation 33.223 m
109 ft33.223 m
Coordinates 19° 36' 54.06" N, 96° 12' 46.86" E
Runways
Designator Length Width Surface ROPS


METAR
Observation VYNT 251100Z 13008KT 7000 BKN018 FEW022CB BKN110 32/25 Q1004 NOSIG
Station Namtu Airport
Date/Time 25 June 2019 11:00:00
Wind direction 130°
Wind speed 08 kts
Lowest cloud amount broken clouds
Temperature 32°C
Dew point 25°C
Humidity 66%
QNH 1004 hPa
Weather condition n/a

Nay Pyi Taw International Airport, previously known as Ela Airport, is located 16 km8.639 nm
16,000 m
52,493.438 ft
southeast of Nay Pyi Taw, the capital of Myanmar.

Climatology

Tropical Savanna climate (Köppen climate classification Aw)

Maps

Terrain

Loading map...

Airport Layout

Loading map...


Accidents & Serious Incidents at or in vicinity of VYNT

None on SKYbrary